Regional Weather Roundup
Issued by NWS Northern Indiana

Home | Current Version | Previous Version | Graphics & Text | Print | Product List | Glossary On
Versions: 1 2 3 4 5 6 7 8 9 10 11 12 13 14 15 16 17 18 19 20 21 22 23 24 25 26 27 28 29 30 31 32 33 34 35 36 37 38 39 40 41 42 43 44 45 46 47 48 49 50
000
ASUS43 KIWX 270500
RWRIWX

KIWX WEATHER ROUNDUP
NATIONAL WEATHER SERVICE NORTHERN INDIANA
100 AM EDT THU APR 27 2017

NOTE: "FAIR" INDICATES FEW OR NO CLOUDS BELOW 12,000 FEET WITH NO
SIGNIFICANT WEATHER AND/OR OBSTRUCTIONS TO VISIBILITY.

* THESE STATIONS ARE NOT UNDER NWS QUALITY CONTROL. THEY ALSO MAY NOT
  REPORT WEATHER SUCH AS PRECIPITATION OR FOG.

INZ001>027-270600-
NORTHERN INDIANA

CITY           SKY/WX    TMP DP  RH WIND       PRES   REMARKS
KNOX*          CLOUDY    61  52  72 W6        29.47S
SOUTH BEND     CLOUDY    61  59  93 CALM      29.48F
GOSHEN         MOCLDY    64  59  83 SW3       29.47S
MONTICELLO*    CLOUDY    60  59  96 CALM      29.48S
ANGOLA*        CLEAR     63  54  72 SE6       29.51R
FORT WAYNE     MOCLDY    63  56  78 S9        29.50F
PERU/GRISSOM   CLOUDY    61  61 100 CALM      29.47F

$$
INZ028>050-270600-
CENTRAL INDIANA

CITY           SKY/WX    TMP DP  RH WIND       PRES   REMARKS
LAFAYETTE      CLOUDY    60  60 100 CALM      29.48F
KOKOMO*        CLOUDY    65  59  81 S13       29.49F
MUNCIE*        CLOUDY    73  51  46 S8        29.51F
INDIANAPOLIS   CLOUDY    73  54  51 S17G28    29.49S

$$
MIZ043>046-050>051-056>058-064>065-071>073-077>080-270600-
SOUTHWEST LOWER MICHIGAN

CITY           SKY/WX    TMP DP  RH WIND       PRES   REMARKS
BATTLE CREEK   CLOUDY    67  58  72 SE12      29.48S
BENTON HARBOR  CLOUDY    59  56  89 E3        29.45F
COLDWATER*     CLOUDY    64  58  82 SE8       29.49S
HILLSDALE*     MOCLDY    59  55  88 SE6       29.52R
HOLLAND        LGT RAIN  60  57  89 CALM      29.46S FOG
GRAND RAPIDS   CLOUDY    64  57  78 E8        29.44F
KALAMAZOO      CLOUDY    68  56  65 SW9G24    29.48R
STURGIS*       CLOUDY    65  58  79 SE12      29.47S
THREE RIVERS*  MOCLDY    65  59  80 SW3       29.49R

$$
OHZ001>008-015>018-024>025-270600-
NORTHWEST OHIO

CITY           SKY/WX    TMP DP  RH WIND       PRES   REMARKS
DEFIANCE       CLOUDY    71  51  49 S8        29.52S
FINDLAY        PTCLDY    69  46  43 SE10      29.54F
TOLEDO EXPRESS PTCLDY    72  50  45 S9        29.52F
TOLEDO METCALF MOCLDY    66  51  58 SE9       29.54F
LIMA           CLOUDY    68  48  48 S8        29.54F

$$
AND FOR LAKE MICHIGAN COASTAL AND OPEN LAKE BUOY OBSERVATIONS

STATION/POSITION TEMP    WIND        PRES    VSBY  WAVE
                 AIR SEA DIR/SP/G                  HT/PER
                 (F)     (DEG/KT/KT) (MB)    (MI)  (FT/S)
CALUMET HARBOR    61     140/  2/  3  997.5
MICHIGAN CITY     59     220/  2/  2   N/A
BURNS HARBOR      61     180/  6/ 10  998.3F
SOUTH LAKE BUOY   48 42  180/  6/  6  998.4          1/ 4
4 MI NW BRIDGMAN  53 49  210/  6/  6  998.2F         1/ 3
MICHIGAN CITY     57 49                N/A           1

$$
&&



USA.gov is the U.S. government's official web portal to all federal, state and local government web resources and services.